Starlink 30375

operational
NORAD ID: 57732 Int'l Des: 2023-131 Owner: SPXS Country: US Constellation: starlink
LEOCIRCULAR

关于 Starlink 30375

正在加载描述...

实时位置

正在加载3D地球...

即将过境

高度历史

Altitude vs Time

uPlot chart will show altitude changes over time

两行轨道根数

1 57732U 23131A 25304.60793674 -.00005226 00000-0 -37200-3 0 9992
2 57732 43.0034 140.6899 0001168 268.0020 92.0689 15.02542866120669
Epoch: Oct 31, 2025 • Age: 45 hours

当前状态

高度 561.4 km
速度 7.58 km/s
星下点 -14.40°S, 94.82°W
发射日期 Sep 1, 2023
运行时间 2.1 years
类型 internet

技术详情

分类 Payload
质量 730.00 kg
干质量 700.00 kg
总质量 730.00 kg
长度 0.30 m
直径 4.10 m
跨度 29.00 m
形状 Box + pan
制造商 SPXS
平台类型 Starlink V2M
阶段状态 In Orbit
所有者/国家 SPXS/US

大型星座

Loading constellations...